Weather in Reftinsky

Russia / Sverdlovsk Oblast     57°05′28″N   61°40′27″E
В апреле 2022 года жителям России запретили посещать сайт meteo.paraplan.net по решению Генеральной прокуратуры. Аудитория сайта уменьшилась в 10 раз. Владельцы сайта не видят смысла в поддержке погодного сервера в таких условиях. Сайт будет закрыт в октябре.
temp.,
°C
wind,
m/s
gust,
m/s
humid.,
%
clouds,
%
prec.,
mm/h
press.,
hPa
HPBL,
m
3 october, mon
mon323:00+5s41271100 0.0 1025335
02:00+5s4127693 0.0 1024307
05:00+6s41077100 0.0 1025253
08:00+4s4117978 0.0 1025248
11:00+7s41271100 0.0 1025354
14:00+9ssw41267100 0.0 1025408
17:00+10ssw41170100 0.0 1025437
20:00+8wsw41288100 1.5 1027496
4 october, tue
tue423:00+8sw21086100 2.4 1027336
02:00+9sw3117770 0.3 1027285
05:00+9wsw31173100 0.3 1028321
08:00+8wsw3127265 0.0 1029325
11:00+12w475481 0.0 1030361
14:00+16wsw464113 0.0 1030657
17:00+14wsw365588 0.0 1031247
20:00+10sw227389 0.0 103241
5 october, wed
wed523:00+9sw22832 0.0 103229
02:00+7sw228595 0.0 103217
05:00+7sw118684 0.0 103111
08:00+7w2380100 0.0 103159
11:00+11wsw2351100 0.0 1031229
14:00+13sw3441100 0.0 1030590
17:00+12sw2352100 0.0 102982
20:00+9sw2255100 0.0 102941
6 october, thu
thu623:00+9wsw2556100 0.0 1028103
02:00+8sw2254100 0.0 102729
05:00+8sse115291 0.0 102610
08:00+7se2765100 0.0 1024189
11:00+10sse41045100 0.0 1021425
14:00+11ssw4843100 0.0 1020613
17:00+11ssw3861100 0.0 1019522
20:00+7s27796 0.0 1018162
7 october, fri
fri723:00+5s267578 0.0 1016123
02:00+6s2481100 0.0 101570
05:00+7s2583100 0.2 1012130
08:00+7sw3108272 0.0 1010337
11:00+8wsw377790 0.1 1010557
14:00+10w676599 0.3 10091236
17:00+7wnw497498 0.3 10091007
20:00+6wsw4107832 0.0 1010530